Погода в Воскресеновке

Россия / Липецкая область     52˚41′44″N   39˚40′54″E
темп.,
°C
ветер,
м/с
пор.,
м/с
влажн.,
%
обл.,
%
осадки,
мм/ч
давл.,
гПа
погр.,
м
17 января, вс
вс1700:00−14˚з499499 0.1 1009477
03:00−15˚з379599 0.2 1011331
06:00−17˚з349693 0.1 101181
09:00−19˚зсз229790 0.1 101225
12:00−16˚з229254 0.0 1014211
15:00−16˚сз119360 0.0 101565
18:00−20˚ссз129735 0.0 101720
21:00−21˚св129868 0.0 101720
18 января, пн
пн1800:00−22˚ссв2297100 0.0 101822
03:00−21˚с2396100 0.0 101956
06:00−22˚с2295100 0.0 101938
09:00−22˚ссв2295100 0.0 101934
12:00−19˚с1190100 0.0 1019227
15:00−18˚ссз2390100 0.0 1019263
18:00−19˚с2298100 0.4 1018140
21:00−19˚сз2298100 1.1 1019128
19 января, вт
вт1900:00−19˚ссз1298100 0.5 1018170
03:00−19˚сз2298100 0.8 1018138
06:00−19˚сз1298100 0.3 101762
09:00−19˚зсз2297100 0.4 101869
12:00−17˚сз2392100 0.1 1017318
15:00−16˚зсз2493100 0.2 1016341
18:00−17˚зсз2397100 0.2 101666
21:00−17˚зсз2397100 0.4 101780
20 января, ср
ср2000:00−17˚зсз249695 0.2 1017108
03:00−18˚зсз349598 0.2 101897
06:00−20˚зсз349783 0.0 101966
09:00−20˚зсз339782 0.0 102157
12:00−16˚зсз359470 0.0 1022207
15:00−15˚з359361 0.0 1022232
18:00−18˚з33953 0.0 102435
21:00−19˚з33962 0.0 102530
21 января, чт
чт2100:00−19˚зюз33970 0.0 102540
03:00−20˚зюз34970 0.0 102645
06:00−19˚юз339670 0.0 102557
09:00−19˚ююз369185 0.0 1025104
12:00−13˚ююз5989100 0.0 1024285
15:00−11˚ююз61194100 0.1 1021376
18:00−9˚юз61294100 1.1 1020537
21:00−7˚юз51293100 1.7 1018527